CAPE
0 0 0 0 10 19 55 15 2 0 0 0 0 0 0 0 0 0 0 0 0 0 0 0 0 0 0 0 0 0 0 0 0 0 0 0 0 0 0 0 0 0 0
0 0 0 0 0 12 29 0 0 0 0 0 0 0 0 0 0 0 0 0 0 0 0 0 0 0 0 0 0 0 0 0 0 0 0 0 0 0 0 0 0 0 0
0 0 0 0 0 0 0 0 0 0 0 0 0 0 0 0 0 0 0 0 0 0 0 0 0 0 0 0 0 0 0 0 0 0 0 0 0 0 0 0 0 0 0
0 0 0 0 0 0 0 0 0 0 0 0 0 0 0 0 0 0 0 0 0 0 0 0 0 0 0 0 0 0 0 0 0 0 0 0 0 0 0 0 0 0 0
0 0 0 0 0 0 0 0 0 0 0 0 0 0 0 0 0 0 0 0 0 0 0 0 0 0 0 0 0 0 0 0 0 0 0 0 0 0 0 0 0 0 0
0 0 0 0 0 0 0 0 0 0 0 0 0 0 0 0 0 0 0 0 0 0 0 0 0 0 0 0 0 0 0 0 0 0 0 0 0 0 0 0 0 0 0
0 0 0 0 0 0 0 0 0 0 0 0 0 0 0 0 0 0 0 0 0 0 0 0 0 0 0 0 0 0 0 0 0 0 0 0 0 0 0 0 0 0 0
0 0 0 0 0 0 0 0 0 0 0 0 0 0 0 0 0 0 0 0 0 0 0 0 0 0 0 0 0 0 0 0 0 0 0 0 0 0 0 0 0 0 0
0 0 0 0 0 0 0 0 0 0 0 0 0 0 0 0 0 0 0 0 0 0 0 0 0 0 0 0 0 0 0 0 0 0 0 0 0 1 0 0 0 0 0
0 0 0 0 0 0 0 0 0 0 0 0 0 0 0 0 0 0 0 0 0 0 0 0 0 0 0 0 0 0 0 0 0 0 0 0 0 0 1 0 0 0 0
0 0 0 0 0 0 0 0 0 0 0 0 0 0 0 0 0 0 0 0 0 0 0 0 0 0 0 0 1 0 0 0 0 0 0 0 0 1 1 0 0 0 0
0 0 0 0 0 0 0 0 0 0 0 0 0 0 0 0 0 0 0 0 0 0 0 0 0 0 0 1 0 1 1 0 0 0 0 0 0 0 0 0 0 0 0
0 0 0 0 0 0 0 0 0 0 0 0 0 0 0 0 0 0 0 0 0 0 0 0 0 0 0 1 1 2 0 0 0 0 0 0 0 0 0 0 0 0 0
0 0 0 0 0 0 0 0 0 0 0 0 0 0 0 0 0 0 0 0 0 0 0 0 0 0 0 0 0 1 0 0 0 0 0 0 0 0 0 0 0 0 0
0 0 0 0 0 0 0 0 0 0 0 0 0 0 0 0 0 0 0 0 0 0 1 0 0 0 0 2 1 0 0 0 0 0 0 0 0 0 0 0 0 0 0
0 0 0 0 0 0 0 0 0 0 0 0 0 0 0 0 0 0 0 0 0 1 0 0 0 0 2 2 2 2 1 0 0 0 0 0 0 0 0 0 0 0 0
0 0 0 0 0 0 0 0 0 0 0 0 0 0 0 0 0 0 0 0 0 2 1 0 0 1 1 1 1 1 0 0 0 0 0 0 0 0 0 0 0 0 0
0 0 0 0 0 0 0 0 0 0 0 0 0 0 0 0 1 1 1 2 1 1 0 0 1 1 1 1 1 0 0 0 0 0 0 0 0 0 0 0 0 0 0
0 0 0 0 0 0 0 0 0 0 0 0 0 0 0 0 2 5 4 0 1 1 1 1 0 0 0 0 0 0 0 0 0 0 0 0 0 0 0 0 0 0 0
0 0 0 0 0 0 0 0 0 0 1 0 1 0 0 0 1 0 0 0 0 0 0 0 0 0 0 0 0 0 0 0 0 0 0 0 0 0 0 0 0 0 0
0 0 0 0 0 0 0 0 0 0 0 0 1 0 0 0 0 0 0 0 0 0 0 0 0 0 0 0 0 0 0 0 0 0 0 0 0 0 0 0 0 0 0
0 0 0 0 0 0 0 0 0 0 0 0 0 0 0 0 0 0 0 0 0 0 0 0 0 0 0 0 0 0 0 0 0 0 0 0 0 0 0 0 0 0 0
0 0 0 0 0 0 0 0 0 0 0 0 0 0 0 0 0 0 0 0 0 0 0 0 0 0 0 0 0 0 0 0 0 0 0 0 0 0 0 0 0 0 0
0 0 0 0 0 0 0 0 0 0 0 0 0 0 0 0 0 0 0 0 0 0 0 0 0 0 0 0 0 0 0 0 0 0 0 0 0 0 0 0 0 0 0
0 0 0 0 0 0 0 0 0 0 0 0 0 0 0 0 0 0 0 0 0 0 0 0 0 0 0 0 0 0 0 0 0 0 0 0 0 0 0 0 0 0 0
0 0 0 0 0 0 0 0 0 0 0 0 0 0 0 0 0 0 0 0 0 0 0 0 0 0 0 0 0 0 0 0 0 0 0 0 0 0 0 0 0 0 0
CIN
-0 -0 -0 -0 -158 -100 -65 -32 -18 -0 -0 -0 -0 -0 -0 -0 -0 -0 -0 -0 -0 -0 -0 -0 -0 -0 -0 -0 -0 -0 -0 -0 -0 -0 -0 -0 -0 -0 -0 -0 -0 -0 -0
-0 -0 -0 -0 -0 -246 -220 -17 -0 -0 -0 -0 -0 -0 -0 -0 -0 -0 -0 -0 -0 -0 -0 -0 -0 -0 -0 -0 -0 -0 -0 -0 -0 -0 -0 -0 -0 -0 -0 -0 -0 -0 -0
-0 -0 -0 -0 -0 -0 -0 -0 -0 -0 -0 -0 -0 -0 -0 -0 -0 -0 -0 -0 -0 -0 -0 -0 -0 -0 -0 -0 -0 -0 -0 -0 -0 -0 -0 -0 -0 -0 -0 -0 -0 -0 -0
-0 -0 -0 -0 -0 -0 -0 -0 -0 -0 -0 -0 -0 -0 -0 -0 -0 -0 -0 -0 -0 -0 -0 -0 -0 -0 -0 -0 -0 -0 -0 -0 -0 -0 -0 -0 -0 -0 -0 -0 -0 -0 -0
-0 -0 -0 -0 -0 -0 -0 -0 -0 -0 -0 -0 -0 -0 -0 -0 -0 -0 -0 -0 -0 -0 -0 -0 -0 -0 -0 -0 -0 -0 -0 -0 -0 -0 -0 -0 -0 -0 -0 -0 -0 -0 -0
-0 -0 -0 -0 -0 -0 -0 -0 -0 -0 -0 -0 -0 -0 -0 -0 -0 -0 -0 -0 -0 -0 -0 -0 -0 -0 -0 -0 -0 -0 -0 -0 -0 -0 -0 -0 -0 -0 -0 -0 -0 -0 -0
-0 -0 -0 -0 -0 -0 -0 -0 -0 -0 -0 -0 -0 -0 -0 -0 -0 -0 -0 -0 -0 -0 -0 -0 -0 -0 -0 -0 -0 -0 -0 -0 -0 -0 -0 -0 -0 -0 -0 -0 -0 -0 -0
-0 -0 -0 -0 -0 -0 -0 -0 -0 -0 -0 -0 -0 -0 -0 -0 -0 -0 -0 -0 -0 -0 -0 -0 -0 -0 -0 -0 -0 -0 -0 -0 -0 -0 -0 -0 -0 -0 -0 -0 -0 -0 -0
-0 -0 -0 -0 -0 -0 -0 -0 -0 -0 -0 -0 -0 -0 -0 -0 -0 -0 -0 -0 -0 -0 -0 -0 -0 -0 -0 -0 -0 -0 -0 -0 -0 -0 -0 -0 -0 -0 -0 -0 -0 -0 -0
-0 -0 -0 -0 -0 -0 -0 -0 -0 -0 -0 -0 -0 -0 -0 -0 -0 -0 -0 -0 -0 -0 -0 -0 -0 -0 -0 -0 -0 -0 -0 -0 -0 -0 -0 -0 -0 -0 -0 -0 -0 -0 -0
-0 -0 -0 -0 -0 -0 -0 -0 -0 -0 -0 -0 -0 -0 -0 -0 -0 -0 -0 -0 -0 -0 -0 -0 -0 -0 -0 -0 -0 -0 -0 -0 -0 -0 -0 -0 -0 -0 -0 -0 -0 -0 -0
-0 -0 -0 -0 -0 -0 -0 -0 -0 -0 -0 -0 -0 -0 -0 -0 -0 -0 -0 -0 -0 -0 -0 -0 -0 -0 -0 -0 -0 -0 -0 -0 -0 -0 -0 -0 -0 -0 -0 -0 -0 -0 -0
-0 -0 -0 -0 -0 -0 -0 -0 -0 -0 -0 -0 -0 -0 -0 -0 -0 -0 -0 -0 -0 -0 -0 -0 -0 -0 -0 -0 -0 -0 -0 -0 -0 -0 -0 -0 -0 -0 -0 -0 -0 -0 -0
-0 -0 -0 -0 -0 -0 -0 -0 -0 -0 -0 -0 -0 -0 -0 -0 -0 -0 -0 -0 -0 -0 -0 -0 -0 -0 -0 -0 -0 -0 -0 -0 -0 -0 -0 -0 -0 -0 -0 -0 -0 -0 -0
-0 -0 -0 -0 -0 -0 -0 -0 -0 -0 -0 -0 -0 -0 -0 -0 -0 -0 -0 -0 -0 -0 -0 -0 -0 -0 -0 -0 -0 -0 -0 -0 -0 -0 -0 -0 -0 -0 -0 -0 -0 -0 -0
-0 -0 -0 -0 -0 -0 -0 -0 -0 -0 -0 -0 -0 -0 -0 -0 -0 -0 -0 -0 -0 -0 -0 -0 -0 -0 -0 -0 -0 -0 -0 -0 -0 -0 -0 -0 -0 -0 -0 -0 -0 -0 -0
-0 -0 -0 -0 -0 -0 -0 -0 -0 -0 -0 -0 -0 -0 -0 -0 -0 -0 -0 -0 -0 -0 -0 -0 -0 -0 -0 -0 -0 -0 -0 -0 -0 -0 -0 -0 -0 -0 -0 -0 -0 -0 -0
-0 -0 -0 -0 -0 -0 -0 -0 -0 -0 -0 -0 -0 -0 -0 -0 -0 -0 -0 -0 -0 -0 -0 -0 -0 -0 -0 -0 -0 -0 -0 -0 -0 -0 -0 -0 -0 -0 -0 -0 -0 -0 -0
-0 -0 -0 -0 -0 -0 -0 -0 -0 -0 -0 -0 -0 -0 -0 -0 -0 -0 -0 -0 -0 -0 -0 -0 -0 -0 -0 -0 -0 -0 -0 -0 -0 -0 -0 -0 -0 -0 -0 -0 -0 -0 -0
-0 -0 -0 -0 -0 -0 -0 -0 -0 -0 -0 -0 -0 -0 -0 -0 -0 -0 -0 -0 -0 -0 -0 -0 -0 -0 -0 -0 -0 -0 -0 -0 -0 -0 -0 -0 -0 -0 -0 -0 -0 -0 -0
-0 -0 -0 -0 -0 -0 -0 -0 -0 -0 -0 -0 -0 -0 -0 -0 -0 -0 -0 -0 -0 -0 -0 -0 -0 -0 -0 -0 -0 -0 -0 -0 -0 -0 -0 -0 -0 -0 -0 -0 -0 -0 -0
-0 -0 -0 -0 -0 -0 -0 -0 -0 -0 -0 -0 -0 -0 -0 -0 -0 -0 -0 -0 -0 -0 -0 -0 -0 -0 -0 -0 -0 -0 -0 -0 -0 -0 -0 -0 -0 -0 -0 -0 -0 -0 -0
-0 -0 -0 -0 -0 -0 -0 -0 -0 -0 -0 -0 -0 -0 -0 -0 -0 -0 -0 -0 -0 -0 -0 -0 -0 -0 -0 -0 -0 -0 -0 -0 -0 -0 -0 -0 -0 -0 -0 -0 -0 -0 -0
-0 -0 -0 -0 -0 -0 -0 -0 -0 -0 -0 -0 -0 -0 -0 -0 -0 -0 -0 -0 -0 -0 -0 -0 -0 -0 -0 -0 -0 -0 -0 -0 -0 -0 -0 -0 -0 -0 -0 -0 -0 -0 -0
-0 -0 -0 -0 -0 -0 -0 -0 -0 -0 -0 -0 -0 -0 -0 -0 -0 -0 -0 -0 -0 -0 -0 -0 -0 -0 -0 -0 -0 -0 -0 -0 -0 -0 -0 -0 -0 -0 -0 -0 -0 -0 -0
-0 -0 -0 -0 -0 -0 -0 -0 -0 -0 -0 -0 -0 -0 -0 -0 -0 -0 -0 -0 -0 -0 -0 -0 -0 -0 -0 -0 -0 -0 -0 -0 -0 -0 -0 -0 -0 -0 -0 -0 -0 -0 -0
Wind_Speed
23 24 26 26 27 29 29 29 28 26 23 24 23 23 22 21 19 18 18 17 17 15 13 13 13 12 13 12 13 14 15 17 20 20 19 19 21 21 22 23 24 26 28
25 26 27 27 28 29 29 29 28 27 25 25 25 24 23 22 20 21 20 18 17 15 14 14 13 12 12 11 12 13 14 16 18 19 18 19 18 19 21 23 24 25 28
25 26 27 28 26 27 28 29 28 27 27 26 25 25 25 23 24 22 21 19 18 16 15 14 13 12 11 11 12 13 15 15 17 18 19 17 17 18 21 21 23 25 28
25 25 26 27 26 26 27 27 27 27 28 27 26 26 25 25 23 24 20 19 19 16 15 14 13 13 12 11 12 13 14 15 15 18 18 18 18 19 21 22 24 25 29
24 24 25 23 23 24 24 24 25 26 27 27 27 26 25 24 25 21 21 21 18 16 15 14 14 13 13 12 13 13 14 13 16 18 19 19 19 20 21 21 24 27 26
24 24 22 20 21 22 22 22 23 25 26 26 26 26 24 25 22 20 21 19 19 18 18 16 14 14 13 11 13 14 13 14 17 19 19 20 20 21 19 21 24 28 30
22 22 22 20 20 21 21 21 21 23 23 25 26 24 24 22 18 19 17 19 17 16 16 16 16 14 13 14 14 14 14 15 17 16 20 21 22 18 17 21 23 26 27
25 24 24 23 22 22 22 23 22 21 20 19 19 18 18 19 18 16 16 15 16 17 16 15 16 16 16 15 15 16 16 17 18 16 18 18 19 17 17 20 21 24 24
25 25 25 24 24 24 24 24 24 24 23 21 19 18 16 16 13 16 17 18 19 19 18 17 17 17 15 15 17 18 19 20 17 18 17 17 18 17 16 18 21 24 28
27 27 25 24 24 24 24 24 24 23 23 21 20 19 17 17 14 13 16 17 17 19 19 19 18 18 18 18 19 20 22 21 19 19 17 19 19 18 17 16 19 23 26
25 24 23 23 24 23 23 22 21 20 20 19 18 17 17 16 16 15 16 16 19 19 19 20 20 19 19 19 19 20 21 20 22 20 19 20 20 19 19 17 17 20 23
25 25 25 24 23 22 21 22 21 20 20 20 18 17 16 15 15 16 17 18 18 20 20 21 21 20 21 20 19 19 21 23 23 22 23 22 22 20 19 18 17 18 18
25 26 26 24 23 22 21 20 19 19 20 19 19 20 19 18 18 19 18 19 20 22 22 22 21 20 19 19 20 21 24 24 26 25 25 23 22 20 20 18 19 19 20
26 26 26 26 25 24 22 21 20 20 20 20 20 20 21 20 20 19 19 20 20 21 21 22 22 22 21 22 23 25 26 26 26 26 25 24 22 20 21 20 22 21 22
25 26 26 26 26 25 23 22 21 21 20 21 21 22 22 22 20 18 18 20 21 22 23 24 24 25 26 27 30 30 29 29 27 25 24 24 24 24 22 22 22 22 23
24 24 25 25 25 26 26 26 24 24 25 24 24 23 23 23 21 19 20 21 21 21 24 26 27 27 28 29 30 30 30 28 27 26 25 26 26 25 24 23 22 22 23
25 25 25 25 26 27 28 28 30 27 25 25 26 26 24 24 23 23 22 22 22 23 27 28 29 29 29 29 30 31 32 29 27 27 27 27 25 26 24 24 23 23 23
26 26 27 27 28 28 28 29 30 31 32 32 29 29 26 26 27 26 25 24 27 26 28 29 30 29 30 32 32 33 31 29 28 28 27 26 25 25 26 25 24 24 24
27 28 28 29 29 30 30 31 31 32 33 34 32 30 29 28 28 27 26 27 28 29 29 30 31 33 34 34 36 36 32 31 30 29 28 28 27 27 28 27 25 24 23
28 29 29 30 31 31 32 33 34 34 35 36 36 36 34 33 32 31 30 30 31 32 32 33 34 35 36 36 35 33 32 32 32 31 31 31 30 29 30 28 26 26 25
30 31 31 32 34 34 34 35 36 37 37 38 38 38 37 36 35 34 34 33 34 35 35 36 37 37 36 36 35 34 34 34 33 33 34 34 32 32 30 29 28 27 27
32 33 34 34 35 36 37 37 38 39 40 41 41 40 40 39 39 38 38 37 36 35 35 37 38 37 36 35 34 35 35 36 35 34 34 34 33 33 31 31 30 29 27
34 35 36 37 38 39 40 40 40 41 42 42 43 44 43 42 41 41 41 40 38 38 37 36 37 37 35 35 34 35 36 36 35 34 34 34 34 34 33 33 31 31 29
36 37 39 40 41 41 41 42 42 42 43 43 43 44 43 43 43 42 41 41 41 39 37 36 36 37 37 36 35 35 35 36 35 35 34 35 35 34 33 33 32 31 30
38 39 40 41 42 42 42 42 42 42 43 44 44 44 44 44 43 42 41 41 40 39 38 37 37 37 37 38 37 36 35 35 34 32 32 32 33 32 32 32 31 29 28
39 40 41 41 41 41 42 43 43 43 44 43 43 44 44 43 42 41 40 40 40 39 38 38 38 37 37 37 36 35 34 33 32 30 30 31 31 31 30 30 29 28 27
Wind_Direction
264 267 268 269 271 274 275 278 279 278 277 279 279 276 271 270 274 279 283 292 295 289 281 283 290 298 306 316 326 331 334 336 334 341 345 350 351 355 357 359 1 0 0
279 275 273 275 275 274 274 279 280 277 278 279 282 279 273 270 266 278 277 285 286 281 273 277 282 292 299 310 318 324 329 335 335 336 346 344 349 353 354 355 358 360 359
285 281 279 278 275 276 277 278 277 277 278 280 280 278 274 273 272 272 274 281 282 278 270 270 275 281 290 301 310 317 324 333 334 339 340 346 349 351 351 354 356 359 359
294 290 286 284 280 279 280 280 280 280 280 280 278 279 275 272 272 280 273 279 280 277 275 272 273 277 284 291 302 309 317 325 334 335 338 340 344 346 348 350 351 355 356
303 300 296 293 291 288 286 284 282 282 284 284 283 282 279 274 274 268 272 276 270 276 273 274 277 280 285 291 298 304 312 322 327 331 330 333 337 340 340 348 348 351 358
305 305 307 304 299 298 297 293 289 287 286 285 283 282 275 277 272 264 275 268 274 276 275 277 279 282 286 288 298 302 308 316 323 326 325 327 331 335 340 342 344 347 347
308 307 306 308 307 304 303 301 298 294 292 287 285 283 280 280 270 269 269 274 272 275 272 272 276 278 279 286 295 303 308 316 324 321 320 324 327 333 336 336 340 342 345
305 305 304 305 306 306 305 304 303 301 298 295 291 284 278 279 271 261 264 269 268 276 275 270 274 278 281 285 290 295 302 312 318 315 318 322 328 333 332 334 337 340 344
305 303 303 304 304 304 304 304 303 302 301 298 294 288 280 275 258 266 269 276 277 277 281 279 279 280 280 282 289 295 302 311 314 314 317 320 323 324 326 330 331 336 340
311 308 308 308 307 306 307 306 306 304 303 302 300 296 289 281 275 266 279 277 277 281 284 282 281 284 283 280 288 293 301 309 309 312 310 316 318 318 319 321 328 331 336
325 323 319 316 313 312 312 311 309 308 308 306 303 296 289 282 279 268 275 273 277 280 279 282 284 284 285 285 287 294 303 311 309 306 304 311 314 314 315 318 322 326 331
332 329 326 324 322 320 317 316 314 312 310 308 305 300 295 286 275 272 273 284 280 280 281 285 287 282 284 285 287 294 304 306 307 302 303 305 308 310 314 316 320 322 327
334 333 333 333 332 329 326 323 319 315 313 310 305 301 297 293 287 282 278 282 284 287 287 287 287 284 280 281 284 294 302 302 301 298 299 302 305 308 313 317 319 321 325
333 332 332 332 332 332 330 326 322 319 316 313 310 306 302 297 293 289 285 285 284 286 288 289 289 288 286 288 292 298 299 299 295 294 297 300 304 306 308 311 313 316 320
336 335 334 334 335 334 334 333 330 328 323 318 313 310 305 300 295 286 281 282 284 287 291 291 289 288 289 290 295 296 297 297 292 292 293 295 298 301 302 307 309 313 314
341 340 340 340 339 337 335 334 335 332 328 323 320 315 310 307 303 292 286 287 286 287 290 289 287 286 288 292 293 298 298 293 291 291 290 292 294 296 299 301 304 305 309
341 341 341 340 339 338 337 335 333 335 333 329 324 318 314 311 305 300 295 293 288 287 287 289 288 288 290 293 296 297 296 291 292 290 291 291 293 295 296 296 298 302 304
339 340 340 338 338 337 336 334 332 330 328 327 326 321 317 313 310 307 301 299 297 289 289 290 290 289 292 295 296 299 296 292 290 289 290 291 292 293 295 295 294 297 301
338 337 336 336 336 335 334 332 330 328 326 324 325 325 322 316 313 309 305 299 297 295 292 291 292 293 295 297 299 299 294 292 290 290 288 290 291 291 291 292 293 294 297
336 336 336 334 334 332 331 330 329 328 326 324 323 322 321 320 314 310 306 302 299 298 296 293 293 294 296 297 299 299 295 292 291 289 289 290 290 290 290 290 290 291 292
332 332 332 331 330 329 328 327 325 324 323 322 321 321 320 316 314 312 308 305 302 300 297 295 296 296 296 296 296 296 295 294 292 291 289 289 290 289 289 290 290 290 292
329 328 328 327 327 326 325 324 323 322 320 319 319 319 319 316 314 312 310 308 307 304 302 300 299 298 298 297 297 297 295 294 293 292 290 290 289 289 288 288 288 288 289
324 324 324 324 324 323 322 322 321 320 319 319 318 318 318 316 315 313 311 311 309 307 307 306 305 303 302 300 299 298 297 295 294 293 291 290 289 288 287 287 287 288 287
322 322 321 321 321 321 320 320 320 320 319 319 319 318 317 316 315 314 313 313 312 311 310 308 306 305 304 303 301 300 299 298 296 294 292 291 290 289 288 288 287 286 286
320 320 320 320 320 320 320 320 320 321 320 320 319 318 317 316 315 314 314 313 312 311 310 310 308 307 306 305 303 302 301 300 299 297 295 293 291 290 289 287 287 286 285
318 318 319 319 319 320 320 320 320 321 321 321 321 321 320 319 318 316 316 315 313 313 312 311 310 309 308 307 306 304 303 302 301 299 297 295 293 291 289 288 286 286 285